DAH2024 DAAG-LIRF

Flight info

Callsign DAH2024
Flight time 1h 20m
Altitude 41000
Route BOURI UG26 REQIN DCT ORKUM M603 ALG L5 VALMA
Aircraft B736/M-SDE2E3FGHIRWXY/LB1

Departure

Time 2026-05-05 06:46
Airport Houari Boumediene Airport (DAAG)

Arrival

Time 2026-05-05 08:06
Airport Rome–Fiumicino Leonardo da Vinci International Airport (LIRF)
Time Latitude Longitude Altitude Speed Heading
2026-05-05 06:18 36.69756 3.20132 60 ft 0 kts 90°
2026-05-05 06:39 36.69756 3.20125 60 ft 4 kts 90°
2026-05-05 06:39 36.69757 3.20091 63 ft 4 kts 93°
2026-05-05 06:39 36.69759 3.20057 64 ft 4 kts 98°
2026-05-05 06:40 36.69765 3.20026 69 ft 4 kts 120°
2026-05-05 06:40 36.69778 3.20009 65 ft 3 kts 198°
2026-05-05 06:40 36.69784 3.20012 63 ft 0 kts 204°
2026-05-05 06:43 36.69767 3.20003 62 ft 9 kts 202°
2026-05-05 06:43 36.69668 3.19988 69 ft 19 kts 179°
2026-05-05 06:44 36.69537 3.19983 67 ft 19 kts 182°
2026-05-05 06:44 36.69433 3.19923 64 ft 18 kts 237°
2026-05-05 06:44 36.69320 3.19904 62 ft 17 kts 147°
2026-05-05 06:44 36.69306 3.20041 64 ft 11 kts 95°
2026-05-05 06:45 36.69265 3.20026 68 ft 10 kts 245°
2026-05-05 06:45 36.69218 3.19903 66 ft 21 kts 242°
2026-05-05 06:45 36.69142 3.19688 68 ft 38 kts 269°
2026-05-05 06:45 36.69159 3.19028 77 ft 114 kts 271°
2026-05-05 06:46 36.69185 3.17790 198 ft 163 kts 270°
2026-05-05 06:46 36.69237 3.16383 1014 ft 161 kts 270°
2026-05-05 06:46 36.69299 3.14999 1837 ft 159 kts 279°
2026-05-05 06:46 36.69796 3.13700 2375 ft 182 kts 313°
2026-05-05 06:47 36.70864 3.12625 2823 ft 210 kts 328°
2026-05-05 06:47 36.72272 3.11971 3401 ft 227 kts 349°
2026-05-05 06:47 36.73908 3.12061 3916 ft 246 kts 15°
2026-05-05 06:47 36.75477 3.13113 4404 ft 271 kts 42°
2026-05-05 06:48 36.76819 3.14893 5042 ft 289 kts 49°
2026-05-05 06:48 36.78182 3.16785 5992 ft 295 kts 48°
2026-05-05 06:48 36.79563 3.18712 6939 ft 301 kts 47°
2026-05-05 06:48 36.80974 3.20678 7875 ft 306 kts 47°
2026-05-05 06:49 36.82408 3.22676 8830 ft 311 kts 47°
2026-05-05 06:49 36.83844 3.24679 9773 ft 317 kts 46°
2026-05-05 06:49 36.85331 3.26751 10524 ft 328 kts 46°
2026-05-05 06:49 36.87088 3.28678 10983 ft 343 kts 27°
2026-05-05 06:50 36.89268 3.29870 11799 ft 343 kts 14°
2026-05-05 06:50 36.91544 3.30801 12764 ft 345 kts 13°
2026-05-05 06:50 36.93843 3.31695 13748 ft 348 kts 12°
2026-05-05 06:50 36.96169 3.32601 14620 ft 352 kts 12°
2026-05-05 06:51 36.98526 3.33535 15434 ft 358 kts 12°
2026-05-05 06:51 37.00919 3.34497 16244 ft 364 kts 12°
2026-05-05 06:51 37.03350 3.35485 17074 ft 370 kts 12°
2026-05-05 06:51 37.05812 3.36493 17910 ft 376 kts 12°
2026-05-05 06:52 37.08317 3.37521 18675 ft 381 kts 12°
2026-05-05 06:52 37.10861 3.38565 19386 ft 387 kts 12°
2026-05-05 06:52 37.13441 3.39624 20093 ft 394 kts 12°
2026-05-05 06:52 37.15957 3.41152 20756 ft 411 kts 30°
2026-05-05 06:53 37.18071 3.43557 21453 ft 423 kts 49°
2026-05-05 06:53 37.19778 3.46607 22179 ft 431 kts 55°
2026-05-05 06:53 37.21419 3.49788 22808 ft 439 kts 56°
2026-05-05 06:53 37.23067 3.53057 23483 ft 445 kts 57°
2026-05-05 06:54 37.24731 3.56362 24098 ft 450 kts 57°
2026-05-05 06:54 37.26415 3.59687 24769 ft 452 kts 56°
2026-05-05 06:54 37.28117 3.63020 25446 ft 454 kts 56°
2026-05-05 06:54 37.29834 3.66365 26091 ft 457 kts 56°
2026-05-05 06:55 37.31569 3.69732 26703 ft 461 kts 56°
2026-05-05 06:55 37.33320 3.73125 27315 ft 465 kts 55°
2026-05-05 06:55 37.35088 3.76550 27918 ft 468 kts 55°
2026-05-05 06:55 37.36865 3.79996 28508 ft 472 kts 55°
2026-05-05 06:56 37.38654 3.83469 29093 ft 474 kts 55°
2026-05-05 06:56 37.40429 3.86922 29693 ft 477 kts 55°
2026-05-05 06:56 37.42238 3.90444 30222 ft 481 kts 55°
2026-05-05 06:56 37.44059 3.93993 30592 ft 486 kts 55°
2026-05-05 06:57 37.45900 3.97586 31010 ft 490 kts 55°
2026-05-05 06:57 37.47748 4.01197 31478 ft 492 kts 55°
2026-05-05 06:57 37.49601 4.04823 31926 ft 494 kts 55°
2026-05-05 06:57 37.51466 4.08475 32328 ft 496 kts 55°
2026-05-05 06:58 37.53340 4.12149 32695 ft 499 kts 55°
2026-05-05 06:58 37.55222 4.15841 33049 ft 502 kts 55°
2026-05-05 06:58 37.57112 4.19555 33385 ft 505 kts 55°
2026-05-05 06:58 37.59011 4.23290 33784 ft 505 kts 55°
2026-05-05 06:59 37.60902 4.27016 34247 ft 503 kts 55°
2026-05-05 06:59 37.62764 4.30688 34687 ft 501 kts 55°
2026-05-05 06:59 37.64647 4.34405 35083 ft 501 kts 55°
2026-05-05 06:59 37.66528 4.38120 35336 ft 504 kts 55°
2026-05-05 07:00 37.68418 4.41859 35644 ft 504 kts 55°
2026-05-05 07:00 37.70302 4.45588 36033 ft 503 kts 55°
2026-05-05 07:00 37.72180 4.49312 36443 ft 501 kts 55°
2026-05-05 07:00 37.74048 4.53022 36795 ft 500 kts 55°
2026-05-05 07:01 37.75899 4.56699 37107 ft 501 kts 55°
2026-05-05 07:01 37.77764 4.60409 37444 ft 499 kts 55°
2026-05-05 07:01 37.79623 4.64111 37855 ft 497 kts 55°
2026-05-05 07:01 37.80851 4.66559 38094 ft 496 kts 55°
2026-05-05 07:02 37.82697 4.70242 38390 ft 496 kts 55°
2026-05-05 07:02 37.84547 4.73937 38643 ft 497 kts 55°
2026-05-05 07:02 37.86393 4.77628 38908 ft 496 kts 55°
2026-05-05 07:02 37.88243 4.81333 39072 ft 498 kts 55°
2026-05-05 07:03 37.90095 4.85044 39246 ft 499 kts 55°
2026-05-05 07:03 37.91949 4.88764 39480 ft 498 kts 55°
2026-05-05 07:03 37.93795 4.92472 39725 ft 497 kts 55°
2026-05-05 07:03 37.95776 4.96052 39905 ft 494 kts 46°
2026-05-05 07:04 37.98084 4.99241 40160 ft 489 kts 41°
2026-05-05 07:04 38.00457 5.02234 40419 ft 486 kts 39°
2026-05-05 07:04 38.02922 5.05173 40613 ft 485 kts 38°
2026-05-05 07:04 38.05407 5.08087 40774 ft 486 kts 38°
2026-05-05 07:05 38.07888 5.11006 40942 ft 487 kts 38°
2026-05-05 07:05 38.12852 5.16937 40983 ft 490 kts 39°
2026-05-05 07:06 38.17759 5.22906 40977 ft 486 kts 39°
2026-05-05 07:06 38.22615 5.28850 40979 ft 483 kts 39°
2026-05-05 07:07 38.27447 5.34772 40984 ft 481 kts 39°
2026-05-05 07:07 38.32255 5.40669 40987 ft 479 kts 39°
2026-05-05 07:08 38.37024 5.46528 40987 ft 479 kts 39°
2026-05-05 07:08 38.41832 5.52445 40995 ft 480 kts 39°
2026-05-05 07:09 38.46644 5.58380 40998 ft 482 kts 39°
2026-05-05 07:09 38.51470 5.64344 40996 ft 483 kts 39°
2026-05-05 07:10 38.56314 5.70343 41000 ft 486 kts 39°
2026-05-05 07:10 38.61172 5.76372 41003 ft 487 kts 39°
2026-05-05 07:11 38.66007 5.82385 40995 ft 488 kts 39°
2026-05-05 07:11 38.70878 5.88454 41000 ft 489 kts 39°
2026-05-05 07:12 38.75749 5.94536 41021 ft 489 kts 40°
2026-05-05 07:12 38.80613 6.00620 41006 ft 489 kts 40°
2026-05-05 07:13 38.85481 6.06723 41001 ft 489 kts 40°
2026-05-05 07:13 38.90342 6.12830 41002 ft 487 kts 40°
2026-05-05 07:14 38.95179 6.18917 41000 ft 486 kts 40°
2026-05-05 07:14 39.00067 6.24910 41004 ft 482 kts 34°
2026-05-05 07:15 39.05586 6.29518 41012 ft 474 kts 24°
2026-05-05 07:15 39.11277 6.33773 41011 ft 473 kts 24°
2026-05-05 07:16 39.16951 6.38060 41010 ft 473 kts 25°
2026-05-05 07:16 39.22621 6.42415 41022 ft 474 kts 25°
2026-05-05 07:17 39.28278 6.46796 41012 ft 475 kts 25°
2026-05-05 07:17 39.33942 6.51194 41014 ft 475 kts 25°
2026-05-05 07:18 39.39568 6.55568 41036 ft 475 kts 25°
2026-05-05 07:18 39.45239 6.59983 41025 ft 476 kts 25°
2026-05-05 07:19 39.50915 6.64411 41009 ft 476 kts 25°
2026-05-05 07:19 39.56599 6.68853 41006 ft 476 kts 26°
2026-05-05 07:20 39.62277 6.73300 41035 ft 477 kts 26°
2026-05-05 07:20 39.67953 6.77753 41021 ft 477 kts 26°
2026-05-05 07:21 39.73630 6.82217 41015 ft 477 kts 26°
2026-05-05 07:21 39.79268 6.86657 41008 ft 476 kts 26°
2026-05-05 07:22 39.84932 6.91128 41025 ft 476 kts 26°
2026-05-05 07:22 39.90595 6.95606 41016 ft 476 kts 26°
2026-05-05 07:23 39.96265 7.00098 41016 ft 476 kts 26°
2026-05-05 07:23 40.01928 7.04594 41014 ft 475 kts 26°
2026-05-05 07:24 40.07540 7.09058 41020 ft 475 kts 26°
2026-05-05 07:24 40.13223 7.13587 41012 ft 475 kts 26°
2026-05-05 07:25 40.18828 7.18063 41022 ft 475 kts 26°
2026-05-05 07:25 40.24477 7.22583 41010 ft 476 kts 27°
2026-05-05 07:26 40.30123 7.27109 41013 ft 476 kts 27°
2026-05-05 07:26 40.35772 7.31648 41012 ft 476 kts 27°
2026-05-05 07:27 40.41415 7.36191 41014 ft 475 kts 27°
2026-05-05 07:27 40.47054 7.40740 41010 ft 475 kts 27°
2026-05-05 07:28 40.52661 7.45345 40998 ft 478 kts 34°
2026-05-05 07:28 40.54986 7.48499 41017 ft 484 kts 54°
2026-05-05 07:28 40.56577 7.52407 40996 ft 487 kts 70°
2026-05-05 07:28 40.57317 7.56729 41036 ft 484 kts 84°
2026-05-05 07:29 40.57694 7.61136 40998 ft 486 kts 85°
2026-05-05 07:29 40.58320 7.69927 41008 ft 486 kts 85°
2026-05-05 07:30 40.59015 7.78791 41011 ft 487 kts 84°
2026-05-05 07:30 40.60141 7.92092 41022 ft 488 kts 84°
2026-05-05 07:31 40.60884 8.00987 41013 ft 489 kts 84°
2026-05-05 07:31 40.61617 8.09887 41024 ft 489 kts 84°
2026-05-05 07:32 40.62345 8.18783 41045 ft 489 kts 84°
2026-05-05 07:32 40.63666 8.27566 41011 ft 489 kts 68°
2026-05-05 07:33 40.66258 8.35767 41002 ft 488 kts 65°
2026-05-05 07:33 40.68931 8.43973 41020 ft 486 kts 66°
2026-05-05 07:34 40.71538 8.52203 41017 ft 485 kts 66°
2026-05-05 07:34 40.74104 8.60435 41023 ft 484 kts 67°
2026-05-05 07:35 40.76639 8.68599 41016 ft 484 kts 67°
2026-05-05 07:35 40.79185 8.76813 41015 ft 483 kts 66°
2026-05-05 07:36 40.81723 8.85019 41031 ft 482 kts 67°
2026-05-05 07:36 40.84266 8.93210 41022 ft 481 kts 66°
2026-05-05 07:37 40.86812 9.01384 41032 ft 481 kts 66°
2026-05-05 07:37 40.89354 9.09582 41024 ft 481 kts 66°
2026-05-05 07:38 40.91867 9.17718 41023 ft 481 kts 66°
2026-05-05 07:38 40.94389 9.25908 41023 ft 481 kts 66°
2026-05-05 07:39 40.96904 9.34126 41045 ft 481 kts 67°
2026-05-05 07:39 40.99413 9.42372 41024 ft 482 kts 67°
2026-05-05 07:40 41.01915 9.50619 41010 ft 482 kts 67°
2026-05-05 07:40 41.04395 9.58813 41023 ft 482 kts 67°
2026-05-05 07:41 41.05642 9.62944 40921 ft 484 kts 67°
2026-05-05 07:41 41.06903 9.67127 40350 ft 490 kts 67°
2026-05-05 07:41 41.08167 9.71325 39777 ft 488 kts 67°
2026-05-05 07:41 41.09424 9.75506 39166 ft 488 kts 67°
2026-05-05 07:42 41.10675 9.79692 38486 ft 489 kts 67°
2026-05-05 07:42 41.11913 9.83886 37734 ft 488 kts 68°
2026-05-05 07:42 41.13148 9.88094 36931 ft 490 kts 68°
2026-05-05 07:42 41.14388 9.92324 36051 ft 494 kts 68°
2026-05-05 07:43 41.15617 9.96515 35493 ft 491 kts 68°
2026-05-05 07:43 41.16852 10.00731 34921 ft 489 kts 68°
2026-05-05 07:43 41.18098 10.04936 34214 ft 490 kts 68°
2026-05-05 07:43 41.19362 10.09137 33611 ft 488 kts 68°
2026-05-05 07:44 41.20616 10.13306 33046 ft 484 kts 68°
2026-05-05 07:44 41.21853 10.17444 32512 ft 481 kts 68°
2026-05-05 07:44 41.23076 10.21574 31930 ft 479 kts 69°
2026-05-05 07:44 41.24287 10.25684 31432 ft 476 kts 69°
2026-05-05 07:45 41.25485 10.29765 30951 ft 473 kts 69°
2026-05-05 07:45 41.26679 10.33834 30465 ft 471 kts 69°
2026-05-05 07:45 41.27867 10.37890 29960 ft 469 kts 69°
2026-05-05 07:45 41.29048 10.41926 29421 ft 467 kts 69°
2026-05-05 07:46 41.30219 10.45930 28945 ft 463 kts 69°
2026-05-05 07:46 41.31380 10.49905 28419 ft 458 kts 69°
2026-05-05 07:46 41.32526 10.53838 27933 ft 454 kts 69°
2026-05-05 07:46 41.33661 10.57734 27449 ft 449 kts 69°
2026-05-05 07:47 41.34785 10.61602 26963 ft 446 kts 69°
2026-05-05 07:47 41.35897 10.65432 26510 ft 442 kts 69°
2026-05-05 07:47 41.36987 10.69190 26053 ft 438 kts 69°
2026-05-05 07:47 41.38077 10.72959 25598 ft 435 kts 69°
2026-05-05 07:48 41.39159 10.76701 25141 ft 431 kts 69°
2026-05-05 07:48 41.40230 10.80413 24702 ft 428 kts 69°
2026-05-05 07:48 41.40950 10.82911 24373 ft 426 kts 69°
2026-05-05 07:48 41.42007 10.86582 23921 ft 423 kts 69°
2026-05-05 07:49 41.43055 10.90228 23435 ft 420 kts 69°
2026-05-05 07:49 41.44094 10.93846 22938 ft 416 kts 69°
2026-05-05 07:49 41.45108 10.97384 22464 ft 412 kts 69°
2026-05-05 07:49 41.46124 11.00932 22023 ft 408 kts 69°
2026-05-05 07:50 41.47129 11.04445 21584 ft 403 kts 69°
2026-05-05 07:50 41.48120 11.07918 21177 ft 398 kts 69°
2026-05-05 07:50 41.49085 11.11334 20924 ft 389 kts 69°
2026-05-05 07:50 41.50024 11.14671 20654 ft 382 kts 69°
2026-05-05 07:51 41.50954 11.17982 20062 ft 384 kts 69°
2026-05-05 07:51 41.51892 11.21323 19695 ft 380 kts 69°
2026-05-05 07:51 41.52807 11.24586 19477 ft 371 kts 69°
2026-05-05 07:51 41.53705 11.27794 19112 ft 368 kts 69°
2026-05-05 07:52 41.54600 11.30990 18698 ft 367 kts 69°
2026-05-05 07:52 41.55493 11.34182 18277 ft 365 kts 70°
2026-05-05 07:52 41.56367 11.37313 17862 ft 363 kts 70°
2026-05-05 07:52 41.57286 11.40438 17437 ft 360 kts 63°
2026-05-05 07:53 41.58769 11.43084 16984 ft 355 kts 39°
2026-05-05 07:53 41.60716 11.45065 16608 ft 349 kts 32°
2026-05-05 07:53 41.62718 11.46895 16188 ft 348 kts 31°
2026-05-05 07:53 41.64724 11.48692 15757 ft 347 kts 31°
2026-05-05 07:54 41.66723 11.50485 15361 ft 345 kts 31°
2026-05-05 07:54 41.68704 11.52278 14977 ft 343 kts 31°
2026-05-05 07:54 41.70670 11.54071 14588 ft 341 kts 31°
2026-05-05 07:54 41.72620 11.55859 14215 ft 339 kts 32°
2026-05-05 07:55 41.74559 11.57645 13834 ft 337 kts 32°
2026-05-05 07:55 41.76484 11.59422 13422 ft 335 kts 32°
2026-05-05 07:55 41.78397 11.61192 13029 ft 332 kts 32°
2026-05-05 07:55 41.80289 11.62945 12650 ft 330 kts 32°
2026-05-05 07:56 41.82172 11.64691 12275 ft 328 kts 32°
2026-05-05 07:56 41.84043 11.66426 11870 ft 326 kts 32°
2026-05-05 07:56 41.85905 11.68155 11554 ft 322 kts 32°
2026-05-05 07:56 41.87706 11.69831 11474 ft 309 kts 32°
2026-05-05 07:57 41.89460 11.71464 11206 ft 305 kts 31°
2026-05-05 07:57 41.91176 11.73059 10877 ft 303 kts 31°
2026-05-05 07:57 41.92907 11.74670 10542 ft 302 kts 31°
2026-05-05 07:57 41.94627 11.76298 10213 ft 302 kts 36°
2026-05-05 07:58 41.95961 11.78440 9792 ft 301 kts 62°
2026-05-05 07:58 41.96700 11.81056 9222 ft 299 kts 72°
2026-05-05 07:58 41.97315 11.83730 8627 ft 299 kts 73°
2026-05-05 07:58 41.97914 11.86385 8142 ft 294 kts 73°
2026-05-05 07:59 41.98505 11.89008 7603 ft 293 kts 74°
2026-05-05 07:59 41.99096 11.91621 7098 ft 291 kts 74°
2026-05-05 07:59 41.99685 11.94199 6652 ft 286 kts 74°
2026-05-05 07:59 42.00278 11.96751 6080 ft 286 kts 74°
2026-05-05 08:00 42.00882 11.99296 5588 ft 283 kts 74°
2026-05-05 08:00 42.01484 12.01801 5137 ft 280 kts 74°
2026-05-05 08:00 42.01843 12.04323 4826 ft 265 kts 101°
2026-05-05 08:00 42.01236 12.06451 4799 ft 237 kts 130°
2026-05-05 08:01 42.00313 12.08247 4688 ft 225 kts 129°
2026-05-05 08:01 41.99517 12.09962 4559 ft 214 kts 127°
2026-05-05 08:01 41.98773 12.11670 4312 ft 210 kts 127°
2026-05-05 08:01 41.98059 12.13364 4043 ft 206 kts 126°
2026-05-05 08:02 41.97365 12.15032 3733 ft 203 kts 127°
2026-05-05 08:02 41.96414 12.16290 3349 ft 188 kts 162°
2026-05-05 08:02 41.95172 12.16858 2915 ft 191 kts 164°
2026-05-05 08:02 41.93902 12.17453 2583 ft 193 kts 165°
2026-05-05 08:03 41.92656 12.17995 2319 ft 183 kts 165°
2026-05-05 08:03 41.91463 12.18497 2079 ft 177 kts 164°
2026-05-05 08:03 41.90338 12.18967 1886 ft 162 kts 163°
2026-05-05 08:03 41.89306 12.19397 1662 ft 148 kts 163°
2026-05-05 08:04 41.88351 12.19796 1466 ft 140 kts 162°
2026-05-05 08:04 41.87428 12.20182 1279 ft 139 kts 161°
2026-05-05 08:04 41.86490 12.20574 1096 ft 143 kts 162°
2026-05-05 08:04 41.85576 12.20957 904 ft 130 kts 162°
2026-05-05 08:05 41.84765 12.21293 730 ft 116 kts 158°
2026-05-05 08:05 41.84007 12.21615 592 ft 119 kts 161°
2026-05-05 08:05 41.83204 12.21944 426 ft 120 kts 161°
2026-05-05 08:05 41.82405 12.22276 238 ft 117 kts 160°
2026-05-05 08:06 41.81617 12.22611 88 ft 121 kts 160°
2026-05-05 08:06 41.80828 12.22939 18 ft 109 kts 160°
2026-05-05 08:06 41.80199 12.23204 16 ft 78 kts 162°
2026-05-05 08:06 41.79795 12.23375 16 ft 46 kts 161°
2026-05-05 08:07 41.79534 12.23522 12 ft 35 kts 148°
2026-05-05 08:07 41.79389 12.23710 13 ft 19 kts 132°
2026-05-05 08:07 41.79322 12.23824 14 ft 14 kts 115°
2026-05-05 08:07 41.79332 12.23949 14 ft 14 kts 68°
2026-05-05 08:08 41.79359 12.24067 13 ft 13 kts 81°
2026-05-05 08:08 41.79384 12.24181 15 ft 13 kts 69°
2026-05-05 08:08 41.79395 12.24221 15 ft 0 kts 68°
2026-05-05 08:09 41.79397 12.24224 15 ft 1 kts 60°
2026-05-05 08:09 41.79428 12.24223 13 ft 6 kts 335°
2026-05-05 08:09 41.79472 12.24199 13 ft 7 kts 338°
2026-05-05 08:09 41.79487 12.24192 13 ft 2 kts 340°
2026-05-05 08:10 41.79493 12.24189 13 ft 0 kts 340°